Regional Weather Roundup
Issued by NWS

Home | Current Version | Previous Version | Text Only | Print | Product List | Glossary On
Versions: 1 2 3 4 5 6 7 8 9 10 11 12 13 14 15 16 17 18 19 20 21 22 23 24 25 26 27 28 29 30 31 32 33 34 35 36 37 38 39 40 41 42 43 44 45 46 47 48 49 50
000
ASUS46 KSEW 270310
RWRWA

WASHINGTON REGIONAL WEATHER ROUNDUP
NATIONAL WEATHER SERVICE SEATTLE WA
700 PM PST FRI DEC 26 2014

NOTE:"FAIR" INDICATES FEW OR NO CLOUDS BELOW 12,000 FEET WITH NO
SIGNIFICANT WEATHER AND/OR OBSTRUCTIONS TO VISIBILITY.

WAZ505-507>509-270400-
SEATTLE, TACOMA, EVERETT, AND VICINITY

CITY           SKY/WX    TMP DP  RH WIND       PRES   REMARKS
EVERETT        CLOUDY    40  37  89 CALM      30.34R
BOEING FIELD   CLOUDY    42  37  82 SE3       30.36S
RENTON         CLOUDY    39  37  92 S5        30.36F
SEATAC AIRPORT CLOUDY    41  37  86 CALM      30.35F
JBLM-MCCHORD   CLOUDY    41  41 100 SE3       30.35F FOG
PUYALLUP       NOT AVBL
BREMERTON      CLOUDY    39  37  93 SW3       30.36F
JBLM-FT LEWIS  CLOUDY    41  41  99 E2        30.34F
TACOMA NARROWS CLOUDY    41  39  93 CALM      30.35F FOG
$$

WAZ001-503-506-510-514-515-270400-
NORTH INTERIOR

CITY           SKY/WX    TMP DP  RH WIND       PRES   REMARKS
BELLINGHAM     CLOUDY    38  35  89 CALM      30.34F
FRIDAY HARBOR  CLOUDY    42  38  85 NE3       30.34F
EASTSOUND      PTCLDY    39  39 100 CALM      30.32F
PORT ANGELES   CLOUDY    42  39  89 CALM      30.32F
NAS WHIDBEY    CLOUDY    44  38  79 E6        30.35S
ARLINGTON      CLOUDY    37  34  87 CALM      30.37R
BURLINGTON     CLOUDY    37  37 100 CALM      30.36S
$$

WAZ020-022-039-040-504-511-512-270400-
SOUTHWEST INTERIOR

CITY           SKY/WX    TMP DP  RH WIND       PRES   REMARKS
SHELTON        CLOUDY    39  38  96 N3        30.33S FOG
OLYMPIA        CLOUDY    41  39  93 E3        30.35F FOG
CHEHALIS       CLOUDY    45  43  93 CALM      30.34F
KELSO          CLOUDY    45  41  87 CALM      30.39S
VANCOUVER      CLOUDY    45  41  86 CALM      30.35S
SCAPPOOSE, OR  CLOUDY    44  41  89 CALM      30.35S
PORTLAND, OR   CLOUDY    46  44  93 CALM      30.37R
$$

WAZ021-516-517-270400-
WASHINGTON COAST

CITY           SKY/WX    TMP DP  RH WIND       PRES   REMARKS
FORKS          CLOUDY    45  45 100 CALM      30.30S
HOQUIAM        CLOUDY    44  43  96 NE7       30.32S
ASTORIA, OR    CLOUDY    46  45  96 E5        30.32F FOG
$$

WAZ019-023-024-040-518-519-270400-
CASCADE MOUNTAINS AND COLUMBIA GORGE

CITY           SKY/WX    TMP DP  RH WIND       PRES   REMARKS
TROUTDALE, OR  CLOUDY    46  42  86 CALM      30.36R
THE DALLES, OR PTCLDY    40  34  79 W6        30.34R
$$

WAZ026-027-041>044-520-521-270400-
EAST SLOPES

CITY           SKY/WX    TMP DP  RH WIND       PRES   REMARKS
OMAK           CLEAR     24  20  84 CALM      30.28S
WENATCHEE      CLEAR     35  24  64 CALM      30.28R
ELLENSBURG     PTCLDY    35  26  69 NW9       30.25R
YAKIMA         CLEAR     29  22  75 W5        30.30R
$$

WAZ028-034-035-270400-
COLUMBIA BASIN

CITY           SKY/WX    TMP DP  RH WIND       PRES   REMARKS
EPHRATA        CLEAR     29  25  85 N6        30.28R
MOSES LAKE     CLEAR     29  26  89 CALM      30.29R
PASCO          CLEAR     29  28  96 CALM      30.32R
HERMISTON, OR  CLEAR     34  28  79 S6        30.31R
$$

WAZ036>038-270400-
NORTHEAST WASHINGTON

CITY           SKY/WX    TMP DP  RH WIND       PRES   REMARKS
SPOKANE GEIGER CLEAR     27  25  92 CALM      30.26R
SPOKANE FELTS  PTCLDY    25  22  88 NE5       30.30R
FAIRCHILD AFB  CLEAR     27  26  97 CALM      30.25R
COEURDALENE,ID CLOUDY    27  25  93 CALM      30.26S VSB 1/4
DEER PARK      FOG       26  25  96 CALM      30.28R VSB 3/4
$$

WAZ029>033-270400-
SOUTHEAST WASHINGTON

CITY           SKY/WX    TMP DP  RH WIND       PRES   REMARKS
PULLMAN        CLEAR     29  25  85 CALM      30.28R
LEWISTON, ID   CLEAR     33  26  75 CALM      30.32R
WALLA WALLA    CLEAR     36  25  64 SE8       30.30S
PENDLETON, OR  CLEAR     32  25  75 S9        30.29S
$$



USA.gov is the U.S. government's official web portal to all federal, state and local government web resources and services.